Regional Weather Roundup
Issued by NWS

Home | Current Version | Previous Version | Graphics & Text | Print | Product List | Glossary On
Versions: 1 2 3 4 5 6 7 8 9 10 11 12 13 14 15 16 17 18 19 20 21 22 23 24 25 26 27 28 29 30 31 32 33 34 35 36 37 38 39 40 41 42 43 44 45 46 47 48 49 50
000
ASUS43 KDMX 171607
RWRIA

WEATHER ROUNDUP FOR IOWA
NATIONAL WEATHER SERVICE DES MOINES IA
1100 AM CDT WED SEP 17 2014

NOTE: "FAIR" INDICATES FEW OR NO CLOUDS BELOW 12,000 FEET WITH NO
SIGNIFICANT WEATHER AND/OR OBSTRUCTIONS TO VISIBILITY.

* - THESE STATIONS ARE NOT NWS STATIONS...THUS NOT UNDER NWS
QUALITY CONTROL.  THEY ALSO DO NOT REPORT WEATHER SUCH
AS PRECIPITATION OR FOG.

IAZ001>003-012>014-020>022-031>034-043>046-171700-
   NORTHWEST IOWA

CITY           SKY/WX    TMP DP  RH WIND       PRES   REMARKS
CARROLL *      SUNNY     68  57  68 CALM      29.95S
CHEROKEE *     SUNNY     66  57  72 CALM      29.95S
DENISON *      SUNNY     68  59  73 CALM      29.93F
LE MARS *      SUNNY     68  57  68 S6        29.94S
ORANGE CITY *  SUNNY     70  54  56 SW6       29.94S
SHELDON *      SUNNY     66  55  68 SW6       29.94R
SIOUX CITY     SUNNY     68  56  65 CALM      29.94R
SPENCER        MOSUNNY   67  54  63 S3        29.95S
STORM LAKE *   SUNNY     68  59  73 CALM      29.95S
$$

IAZ055>058-069>071-079>083-090>094-171700-
   SOUTHWEST IOWA

CITY           SKY/WX    TMP DP  RH WIND       PRES   REMARKS
ATLANTIC *     SUNNY     68  61  77 E5        29.95S
AUDUBON *      SUNNY     68  57  68 CALM      29.96F
CLARINDA *     CLOUDY    66  61  82 S3        29.97S
COUNCIL BLFS * SUNNY     68  63  83 CALM      29.94R
CRESTON *      SUNNY     68  61  77 S8        29.96S
HARLAN  *      SUNNY     68  61  77 CALM      29.98S
LAMONI         PTSUNNY   68  61  78 S8        29.96S
SHENANDOAH *   CLOUDY    68  61  77 SE6       29.96R
$$

IAZ047>049-059>061-072>074-084-171700-
   CENTRAL IOWA

CITY           SKY/WX    TMP DP  RH WIND       PRES   REMARKS
AMES           CLOUDY    63  56  78 S3        29.97S
ANKENY *       CLOUDY    64  57  77 S3        29.97S
CHARITON *     SUNNY     68  59  73 S7        29.97S
DES MOINES     MOSUNNY   67  57  70 SE3       29.97S
GRINNELL*      CLOUDY    63  55  77 E5        29.99S
KNOXVILLE *    PTSUNNY   64  57  77 CALM      29.97R
MARSHALLTOWN   CLOUDY    60  54  80 SE6       29.98R
PELLA *        MOSUNNY   66  57  72 CALM      29.99F
PERRY *          N/A     68  57  68 E3        29.97R
$$

IAZ004>006-015-016-023>025-035-036-171700-
   NORTH CENTRAL IOWA

CITY           SKY/WX    TMP DP  RH WIND       PRES   REMARKS
ALGONA *       SUNNY     66  54  63 S5        29.97R
CLARION *        N/A     68  54  60 VRB6      29.97S
ESTHERVILLE    SUNNY     65  53  65 CALM      29.95
FORT DODGE *   SUNNY     64  54  68 S5        29.98S
MASON CITY     SUNNY     65  53  65 SE7       29.99S
FOREST CITY *  SUNNY     66  54  63 S7        29.97R
IOWA FALLS *     N/A     66  52  59 S7        29.99S
$$

IAZ007>011-017>019-026>030-037>042-050>054-066-171700-
   NORTHEAST IOWA

CITY           SKY/WX    TMP DP  RH WIND       PRES   REMARKS
CEDAR RAPIDS   MOSUNNY   61  55  81 SE6       30.00S
CHARLES CITY * SUNNY     63  52  67 VRB5      30.00S
CLINTON *      MOSUNNY   63  54  72 S5        30.05S
DECORAH *      PTSUNNY   61  50  67 CALM      30.00S
DUBUQUE        CLOUDY    60  48  64 VRB3      30.02S
MONTICELLO *   MOSUNNY   64  50  59 S7        30.00F
OELWEIN *      SUNNY     63  50  63 VRB3      30.01S
WATERLOO       SUNNY     63  50  62 VRB3      29.99R
$$

IAZ064-065-067-068-078-171700-
   EAST CENTRAL IOWA

CITY           SKY/WX    TMP DP  RH WIND       PRES   REMARKS
DAVENPORT      CLOUDY    62  50  64 S8        30.02S
IOWA CITY      CLOUDY    60  55  83 SE5       30.02S
MT. PLEASANT * CLOUDY    61  54  77 SE5       30.01R
MUSCATINE *    CLOUDY    63  54  72 VRB6      30.02S
QUAD CITIES    CLOUDY    63  52  67 S8        30.02S
$$

IAZ062-063-075>077-085>089-095>099-171700-
   SOUTHEAST IOWA

CITY           SKY/WX    TMP DP  RH WIND       PRES   REMARKS
FAIRFIELD *    CLOUDY    61  55  82 SE7       30.00S
FORT MADISON * PTSUNNY   61  55  82 S5        30.02R
KEOKUK *       CLOUDY    59  55  88 SE8       30.00S
OSKALOOSA *    CLOUDY    63  57  82 SE5       29.99S
CENTERVILLE *  MOSUNNY   66  61  82 SE5       29.99S
OTTUMWA        CLOUDY    62  56  80 S5        29.99R
WASHINGTON *   MOSUNNY   64  57  77 VRB7      30.00S
$$

ABBREVIATIONS USED IN REMARKS
   TC - TEMPERATURES IN CELSIUS
  WCI - WIND CHILL INDEX
   HX - HEAT INDEX
  VSB - VISIBILITY
$$




USA.gov is the U.S. government's official web portal to all federal, state and local government web resources and services.